User: anonymous   Login
Location: Eurasberg
(48.3353°N, 11.0839°E)
Time: 11:45:23
(UTC+00:00)
Language:

Meteor 1-24 Rocket - Orbit

View from above orbital plane
View from above orbital plane
View from above satellite
View from above satellite

Ground track
Ground track

The orbit is defined by the following mean orbital elements,

1 08800U          26063.75809925 +.00000000 +00000-0 +37202-4 0 00009
2 08800  81.2538   0.3080 0093835 171.8534 188.4189 14.10649812    08
Epoch (UTC): 04 March 2026 18:11:39
Eccentricity: 0.0093835
inclination: 81.2538°
perigee height: 789 km
apogee height: 925 km
right ascension of ascending node: 0.3080°
argument of perigee: 171.8534°
revolutions per day: 14.10649812
mean anomaly at epoch: 188.4189°

The dashed part of the orbit path shows where the satellite is in the earth's shadow,  

DLR